Regional Weather Roundup
Issued by NWS Kansas City/Pleasant Hill, MO

Home | Current Version | Previous Version | Text Only | Print | Product List | Glossary On
Versions: 1 2 3 4 5 6 7 8 9 10 11 12 13 14 15 16 17 18 19 20 21 22 23 24 25 26 27 28 29 30 31 32 33 34 35 36 37 38 39 40 41 42 43 44 45 46 47 48 49 50
000
ASUS43 KEAX 211310
RWREAX

WEATHER ROUNDUP FOR EASTERN KANSAS AND NORTHWEST MISSOURI
NATIONAL WEATHER SERVICE KANSAS CITY/PLEASANT HILL MO
800 AM CDT TUE APR 21 2015

KSZ040-057-103>105-MOZ028-029-037-043-211400-
...KANSAS CITY METROPOLITAN AREA...

CITY           SKY/WX    TMP DP  RH WIND       PRES   REMARKS
K.C. INTL      PTSUNNY   47  34  60 W5        29.86S
K.C. DOWNTOWN  MOSUNNY   50  34  54 SW6       29.87S
LEES SUMMIT    MOSUNNY   47  35  63 SW6       29.88S
OLATHE - IXD   PTSUNNY   46  38  73 CALM      29.89S
OLATHE - OJC   MOSUNNY   45  38  76 CALM      29.88R
LAWRENCE       PTSUNNY   44  38  79 CALM      29.89R

$$

MOZ001>008-011>017-020>025-030>033-038>040-044>046-053-054-211400-
...NORTHERN AND CENTRAL MISSOURI...

CITY           SKY/WX    TMP DP  RH WIND       PRES   REMARKS
ST. JOSEPH     CLOUDY    46  35  65 SE6       29.86S
MOSBY          MOSUNNY   50  32  50 W5        29.86S
WARRENSBURG    PTSUNNY   48  36  61 SW5       29.88S
WHITEMAN AFB   PTSUNNY   48  36  62 W7        29.87S
CLINTON        MOSUNNY   46  39  76 SW7       29.90S
SEDALIA        MOSUNNY   47  37  68 SW6       29.89R
WARSAW         NOT AVBL
MARSHALL       PTSUNNY   52  36  54 W6        29.87S
CHILLICOTHE      N/A     48  32  53 VRB3      29.85R
MOBERLY        PTSUNNY   48  30  49 W9        29.84S
KIRKSVILLE     MOSUNNY   45  27  49 W8        29.82R

$$

MOZ041-047>049-056>058-063>065-088>090-097-211400-
...EASTERN AND SOUTHERN MISSOURI...

CITY           SKY/WX    TMP DP  RH WIND       PRES   REMARKS
ST. LOUIS INTL PTSUNNY   50  32  50 W13       29.85R
SPIRIT OF STL  CLOUDY    48  32  53 SW15      29.85R
COLUMBIA       MOSUNNY   48  35  60 W7        29.87R
JEFFERSON CITY MOSUNNY   47  37  68 CALM      29.87S
HANNIBAL       MOSUNNY   48  28  46 W10       29.82R
ROLLA          MOSUNNY   44  34  67 SW8       29.87R
LEBANON        SUNNY     50  36  57 W12       29.92R
OSAGE BEACH    MOSUNNY   48  34  57 SW6       29.90R
SPRINGFIELD    SUNNY     51  37  58 SW14      29.92R
BRANSON        MOSUNNY   50  32  50 SW9       29.96R
NEVADA         SUNNY     48  41  76 W3        29.93R
JOPLIN         PTSUNNY   52  37  56 SW12      29.94R
WEST PLAINS    SUNNY     46  35  65 SW6       29.95R

$$

IAZ060-094-KSZ022-034>040-054-083-096-NEZ052-066-093-211400-
...KANSAS...SOUTHEAST NEBRASKA AND IOWA...

CITY           SKY/WX    TMP DP  RH WIND       PRES   REMARKS
TOPEKA         CLOUDY    44  37  76 CALM      29.89R
MANHATTAN      PTSUNNY   40  36  86 SW7       29.90R
EMPORIA        SUNNY     47  38  71 W6        29.90R
CHANUTE        SUNNY     49  41  74 SW10      29.91R
WICHITA        MOSUNNY   51  40  65 SW14      29.91R
OMAHA          SUNNY     44  25  47 W10       29.82R
LINCOLN        MOSUNNY   44  30  57 W3        29.86R
FALLS CITY     PTSUNNY   46  33  60 W8        29.85R
LAMONI         SUNNY     43  26  51 W13       29.80R
DES MOINES     MOSUNNY   40  23  50 W9        29.76S WCI  34

$$



USA.gov is the U.S. government's official web portal to all federal, state and local government web resources and services.